Tracking 30995 objects as of 5-Jul-2025
HD Live streaming from Space Station
objects crossing your sky now

COSMOS 2251 DEB

Track COSMOS 2251 DEB now!
10-day predictions


NORAD ID: 35885
Int'l Code: 1993-036ATY
Perigee: 757.4 km
Apogee: 792.6 km
Inclination: 74.0 °
Period: 100.2 minutes
Semi major axis: 7146 km
RCS: 0.0099 m2 (small)
Launch date: June 16, 1993
Source: Commonwealth of Independent States (former USSR) (CIS)
Launch site: PLESETSK MISSILE AND SPACE COMPLEX (PKMTR)

Note: This is SATELLITE DEBRIS
Your satellite tracking list
IRIDIUM 122
Track 1 satellite(s)




NASA's NSSDC Master Catalog

Two Line Element Set (TLE):
1 35885U 93036ATY 25185.84682162  .00000416  00000-0  14834-3 0  9992
2 35885  74.0267 230.9362 0024659 351.1419   8.9296 14.37169657627044
Source of the keplerian elements: AFSPC